Volver al catálogo

NOAA 16 DEB

ActivoSSO
NORAD 41151·DEBRIS·🇺🇸 United States

Lanzado Sep 21, 2000 desde Vandenberg Space Force Base

Loading…

Próximos Pases (próximas 24 horas)

TLE

ActualizadoSource: Space-Track

Época: Sep 13, 2026, 06:31 UTC

1 41151U 00055CJ  26256.27165569  .00002629  00000-0  13209-2 0  9990
2 41151  98.7961 258.5150 0058874  91.4645 269.3275 14.16448283551849

Sigue NOAA 16 DEB en tiempo real con AllMySat

Download on the App Store